Regional Weather Roundup
Issued by NWS

Home | Current Version | Previous Version | Text Only | Print | Product List | Glossary Off
Versions: 1 2 3 4 5 6 7 8 9 10 11 12 13 14 15 16 17 18 19 20 21 22 23 24 25 26 27 28 29 30 31 32 33 34 35 36 37 38 39 40 41 42 43 44 45 46 47 48 49 50

000
ASUS43 KLMK 232310
RWRKY
KENTUCKY REGIONAL WEATHER ROUNDUP
NATIONAL WEATHER SERVICE LOUISVILLE KY
600 PM EST THU NOV 23 2017

NOTE "FAIR" INDICATES FEW OR NO CLOUDS BELOW 12,000 FEET
WITH NO SIGNIFICANT WEATHER AND/OR OBSTRUCTIONS TO VISIBILITY.

KYZ001>023-026-027-061>063-070>075-240000-
WESTERN AND SOUTH CENTRAL KENTUCKY

CITY           SKY/WX    TMP DP  RH WIND       PRES   REMARKS
PADUCAH        CLEAR     48  19  31 S5        30.02F
HENDERSON      CLEAR     42  25  50 SE5       30.02F
OWENSBORO      CLEAR     44  24  45 S5        30.03F
HOPKINSVILLE   CLEAR     47  21  35 CALM      30.03S
BOWLING GREEN  CLEAR     46  24  42 S3        30.05S
GLASGOW        CLEAR     40  26  57 CALM      30.04S
$$

KYZ024-025-028>034-038-045-046-053-240000-
NORTH CENTRAL KENTUCKY

CITY           SKY/WX    TMP DP  RH WIND       PRES   REMARKS
LOUISVILLE/SDF CLEAR     45  25  45 SE3       30.03S
LOUISVILLE/LOU CLEAR     46  24  42 SE3       30.04S
FORT KNOX      CLEAR     45  22  40 SE5       30.01F
$$

KYZ035>037-039>044-047>052-055>060-089>105-240000-
NORTHEAST KENTUCKY

CITY           SKY/WX    TMP DP  RH WIND       PRES   REMARKS
LEXINGTON      CLEAR     44  21  40 CALM      30.04S
COVINGTON      CLEAR     41  24  51 S5        30.02S
FRANKFORT      CLEAR     40  23  50 CALM      30.02F
$$

KYZ054-064>069-076>088-106>120-240000-
SOUTHEAST KENTUCKY

CITY           SKY/WX    TMP DP  RH WIND       PRES   REMARKS
JACKSON        CLEAR     45  19  35 CALM      30.03S
LONDON         CLEAR     44  22  41 CALM      30.04R
SOMERSET       CLEAR     41  23  48 CALM      30.06S
MIDDLESBORO    CLEAR     42  31  65 CALM      30.03S
MONTICELLO     CLEAR     37  28  70 N8        30.06R WCI  31
$$




USA.gov is the U.S. government's official web portal to all federal, state and local government web resources and services.